Location: Newark
(34.6283°N, 36.0776°E)
Time: 15:42:24
(UTC+00:00)

S-56A Canister/Altair - Pass Details

Date: 24 October 2019
Orbit: 634 x 2499 km, 38.9° (Epoch: 22 November)

Event Time Altitude Azimuth Distance (km) Brightness Sun altitude
Rises 00:00:43 0° 264° (W) 3,155 - -46.9°
Reaches altitude 10° 00:02:50 10° 267° (W) 2,359 - -46.5°
Maximum altitude 00:08:17 69° 350° (N) 1,066 - -45.4°
Exits shadow 00:12:00 31° 65° (ENE) 1,916 9.8 -44.7°
Drops below altitude 10° 00:16:27 10° 74° (ENE) 3,460 11.5 -43.9°
Sets 00:20:09 0° 76° (ENE) 4,753 12.4 -43.1°
